Home   Weather   Charlotte Amalie   Past weeks

Flag for US Virgin Islands Past Weather in Charlotte Amalie, US Virgin Islands — Yesterday and Last 2 Weeks

Now
88 °F

Scattered clouds.


Feels Like: 105 °F
Forecast: 82 / 88 °F
Wind: 17 mph from East

Location: Cyril E. King International Airport

Current Time: Aug 19, 2017 at 1:10:31 pm

Latest Report: Aug 19, 2017 at 11:53 am


Visibility: 10 mi

Pressure: 29.90 "Hg

Humidity: 78%

Dew Point: 80 °F

Location of Charlotte AmalieLocation

Past Weather in Charlotte Amalie — Graph

°F

Charlotte Amalie Temperature Yesterday

Maximum temperature yesterday: 89 °F (at 12:53 pm)
Minimum temperature yesterday: 81 °F (at 2:53 am)
Average temperature yesterday: 85 °F

High & Low Weather Summary for the Past Weeks

 TemperatureHumidityPressure
High92 °F (Aug 4, 11:53 am)97% (Aug 9, 5:53 pm)30.07 "Hg (Aug 9, 5:53 pm)
Low75 °F (Aug 8, 12:53 am)56% (Aug 15, 1:53 pm)29.84 "Hg (Aug 19, 3:53 am)
Average83 °F79%29.98 "Hg
* Reported Aug 4 11:53 am — Aug 19 11:53 am, Charlotte Amalie. Weather by CustomWeather, © 2017

Note: Actual official high and low records may vary slightly from our data, if they occured in-between our weather recording intervals... More about our weather records

Advertising

Charlotte Amalie Weather History for the Previous 24 Hours

Scroll right to see more
 ConditionsComfort  
Time TempWeatherWind HumidityBarometerVisibility
11:53 am
Sat, Aug 19
88 °FScattered clouds.17 mph78%29.90 "Hg10 mi
10:53 am88 °FScattered clouds.17 mph73%29.92 "Hg10 mi
9:53 am87 °FPassing clouds.16 mph72%29.93 "Hg10 mi
8:53 am86 °FPassing clouds.17 mph77%29.92 "Hg10 mi
7:53 am84 °FPassing clouds.10 mph83%29.90 "Hg10 mi
6:53 am82 °FScattered clouds.12 mph88%29.88 "Hg10 mi
5:53 am80 °FLight rain. Fog.12 mph90%29.87 "Hg6 mi
4:53 am82 °FPassing clouds.13 mph85%29.84 "Hg10 mi
3:53 am82 °FPassing clouds.15 mph85%29.84 "Hg10 mi
2:53 am83 °FPassing clouds.16 mph82%29.85 "Hg10 mi
1:53 am83 °FClear.10 mph82%29.87 "Hg10 mi
12:53 am83 °FPassing clouds.17 mph82%29.90 "Hg10 mi
11:53 pm
Fri, Aug 18
83 °FPassing clouds.14 mph82%29.93 "Hg10 mi
11:02 pm84 °FPartly cloudy.12 mph77%29.93 "Hg10 mi
9:53 pm84 °FPassing clouds.13 mph77%29.93 "Hg10 mi
9:37 pm84 °FPartly cloudy.14 mph77%29.93 "Hg10 mi
8:53 pm84 °FPassing clouds.16 mph77%29.93 "Hg10 mi
7:53 pm84 °FPartly cloudy.16 mph77%29.92 "Hg10 mi
6:53 pm84 °FPassing clouds.17 mph77%29.90 "Hg10 mi
5:53 pm85 °FSunny.13 mph72%29.91 "Hg10 mi
4:53 pm86 °FPassing clouds.9 mph72%29.90 "Hg10 mi
3:53 pm88 °FPassing clouds.14 mph65%29.89 "Hg10 mi
2:53 pm88 °FScattered clouds.16 mph65%29.89 "Hg10 mi
1:53 pm88 °FBroken clouds.16 mph67%29.89 "Hg10 mi
Weather by CustomWeather, © 2017

See weather overviewHow to use our weather pages